{"data":{"norad_id":61880,"intl_designator":"2024-204G","name":"STARLINK-11328 [DTC]","alt_names":[],"object_type":"PAYLOAD","status":"ACTIVE","operator":null,"country":"US","launch_date":"2024-11-09","launch_site_code":"AFWTR","launch_vehicle":null,"mission":null,"orbit_class":"UNKNOWN","rcs_meters":null,"size_class":null,"mass_kg":null,"dimensions":null,"purposes":["comms"],"wikipedia_slug":null,"has_3d_model":false,"image_url":null,"decayed_at":null,"tle_current":{"epoch":"2026-09-21T20:29:13.990560Z","epoch_age_seconds":71543,"freshness":"FRESH","line1":"1 61880U 24204G   26264.85363415 -.00000229  00000+0  29682-5 0  9995","line2":"2 61880  53.1593 109.2997 0001050  70.5565 289.5567 15.69707776107726","mean_motion":15.69707776,"eccentricity":0.000105,"inclination_deg":53.1593,"raan_deg":109.2997,"arg_perigee_deg":70.5565,"mean_anomaly_deg":289.5567,"bstar":2.9682e-6,"rev_number":10772,"period_min":91.736820191429,"perigee_km":359.02563830195,"apogee_km":360.44059102603,"semimajor_km":6737.870114664,"source":"CELESTRAK","updated_at":"2026-09-22T09:00:49.445629Z"}}}